Zurück zum Katalog

STARLINK-5632

AktivKommunikationVLEO
NORAD 55400·PAYLOAD·🇺🇸 United States

Gestartet Jan 31, 2023 von Vandenberg Space Force Base

Loading…

Nächste Überflüge (nächste 24 Stunden)

TLE

AktuellSource: CelesTrak SupGP

Epoche: Sep 14, 2026, 21:39 UTC

1 55400C 23014K   26257.90256944  .00014473  00000+0  12132-2 0  2571
2 55400  70.0001 307.3923 0004040 267.6844 226.1263 14.98308665    19

Verfolge STARLINK-5632 in Echtzeit mit AllMySat

Download on the App Store